This is the latest recevied weather packets stored in our database for station/object KA7EII-13. If no packets are shown the sender has not sent any weather packets the latest 10 day(s).
| Time | Temp. | Humidity | Pressure | Rain* | Wind** | Luminosity | Snow |
|---|---|---|---|---|---|---|---|
| 1777801894 | 6.67° C | 57% | 1105.2 hPa | 0 mm | - | 0 W/m² | - |
| 1777801590 | 7.22° C | 55% | 1105.4 hPa | 0 mm | - | 0 W/m² | - |
| 1777801288 | 7.22° C | 54% | 1105.2 hPa | 0 mm | - | 0 W/m² | - |
| 1777800984 | 7.78° C | 53% | 1105.4 hPa | 0 mm | - | 0 W/m² | - |
| 1777800681 | 7.78° C | 53% | 1105.4 hPa | 0 mm | - | 0 W/m² | - |
| 1777800376 | 8.33° C | 53% | 1105.3 hPa | 0 mm | - | 0 W/m² | - |
| 1777800073 | 8.33° C | 52% | 1105.6 hPa | 0 mm | - | 0 W/m² | - |
| 1777799768 | 8.33° C | 52% | 1105.4 hPa | 0 mm | - | 0 W/m² | - |
| 1777799466 | 8.33° C | 51% | 1105.2 hPa | 0 mm | - | 0 W/m² | - |
| 1777799161 | 8.89° C | 51% | 1105.4 hPa | 0 mm | - | 0 W/m² | - |
| 1777798857 | 8.33° C | 51% | 1105.1 hPa | 0 mm | - | 0 W/m² | - |
| 1777798547 | 8.33° C | 51% | 1105.3 hPa | 0 mm | - | 0 W/m² | - |
| 1777798246 | 8.33° C | 52% | 1105.2 hPa | 0 mm | - | 0 W/m² | - |
| 1777797941 | 8.33° C | 53% | 1105.1 hPa | 0 mm | - | 0 W/m² | - |
| 1777797639 | 8.33° C | 53% | 1105 hPa | 0 mm | - | 0 W/m² | - |
| 1777797336 | 7.78° C | 52% | 1105.2 hPa | 0 mm | - | 0 W/m² | - |
| 1777797033 | 7.78° C | 54% | 1105 hPa | 0 mm | - | 0 W/m² | - |
| 1777796725 | 7.78° C | 53% | 1105.1 hPa | 0 mm | - | 0 W/m² | - |
| 1777796421 | 7.78° C | 54% | 1105.1 hPa | 0 mm | - | 0 W/m² | - |
| 1777796116 | 8.33° C | 53% | 1105.2 hPa | 0 mm | - | 0 W/m² | - |
| 1777795813 | 8.89° C | 52% | 1105 hPa | 0 mm | - | 0 W/m² | - |
| 1777795509 | 8.89° C | 51% | 1105.4 hPa | 0 mm | - | 0 W/m² | - |
| 1777795207 | 8.89° C | 49% | 1105.2 hPa | 0 mm | - | 0 W/m² | - |
| 1777794903 | 9.44° C | 48% | 1105.2 hPa | 0 mm | - | 0 W/m² | - |
| 1777794600 | 8.89° C | 50% | 1105.1 hPa | 0 mm | - | 0 W/m² | - |
* Rain latest hour (hover to see other rain measurements)
** Current wind speed in m/s (hover to see current wind gust speed)